Year,Month,Day,Hour,Minute,Value (Times are PST for temperature in C)
2006,08,22,00,00,15.90
2006,08,22,00,01,15.90
2006,08,22,00,02,15.90
2006,08,22,00,03,15.90
2006,08,22,00,04,15.90
2006,08,22,00,05,15.90
2006,08,22,00,06,15.90
2006,08,22,00,07,15.90
2006,08,22,00,08,15.80
2006,08,22,00,09,15.80
2006,08,22,00,10,15.80
2006,08,22,00,11,15.80
2006,08,22,00,12,15.80
2006,08,22,00,13,15.80
2006,08,22,00,14,15.80
2006,08,22,00,15,15.80
2006,08,22,00,16,15.80
2006,08,22,00,17,15.80
2006,08,22,00,18,15.80
2006,08,22,00,19,15.80
2006,08,22,00,20,15.80
2006,08,22,00,21,15.80
2006,08,22,00,22,15.70
2006,08,22,00,23,15.70
2006,08,22,00,24,15.80
2006,08,22,00,25,15.80
2006,08,22,00,26,15.80
2006,08,22,00,27,15.80
2006,08,22,00,28,15.80
2006,08,22,00,29,15.80
2006,08,22,00,30,15.80
2006,08,22,00,31,15.80
2006,08,22,00,32,15.80
2006,08,22,00,33,15.80
2006,08,22,00,34,15.80
2006,08,22,00,35,15.80
2006,08,22,00,36,15.80
2006,08,22,00,37,15.80
2006,08,22,00,38,15.80
2006,08,22,00,39,15.80
2006,08,22,00,40,15.80
2006,08,22,00,41,15.80
2006,08,22,00,42,15.80
2006,08,22,00,43,15.70
2006,08,22,00,44,15.70
2006,08,22,00,45,15.70
2006,08,22,00,46,15.70
2006,08,22,00,47,15.70
2006,08,22,00,48,15.70
2006,08,22,00,49,15.70
2006,08,22,00,50,15.70
2006,08,22,00,51,15.70
2006,08,22,00,52,15.70
2006,08,22,00,53,15.70
2006,08,22,00,54,15.70
2006,08,22,00,55,15.80
2006,08,22,00,56,15.80
2006,08,22,00,57,15.80
2006,08,22,00,58,15.80
2006,08,22,00,59,15.80
2006,08,22,01,00,15.80
2006,08,22,01,01,15.80
2006,08,22,01,02,15.80
2006,08,22,01,03,15.80
2006,08,22,01,04,15.90
2006,08,22,01,05,15.90
2006,08,22,01,06,15.90
2006,08,22,01,07,15.90
2006,08,22,01,08,15.90
2006,08,22,01,09,15.90
2006,08,22,01,10,15.90
2006,08,22,01,11,15.90
2006,08,22,01,12,15.90
2006,08,22,01,13,16.00
2006,08,22,01,14,16.00
2006,08,22,01,15,16.00
2006,08,22,01,16,16.00
2006,08,22,01,17,16.00
2006,08,22,01,18,16.00
2006,08,22,01,19,16.10
2006,08,22,01,20,16.10
2006,08,22,01,21,16.10
2006,08,22,01,22,16.10
2006,08,22,01,23,16.10
2006,08,22,01,24,16.10
2006,08,22,01,25,16.10
2006,08,22,01,26,16.10
2006,08,22,01,27,16.10
2006,08,22,01,28,16.10
2006,08,22,01,29,16.10
2006,08,22,01,30,16.10
2006,08,22,01,31,16.10
2006,08,22,01,32,16.10
2006,08,22,01,33,16.10
2006,08,22,01,34,16.10
2006,08,22,01,35,16.10
2006,08,22,01,36,16.10
2006,08,22,01,37,16.10
2006,08,22,01,38,16.10
2006,08,22,01,39,16.10
2006,08,22,01,40,16.10
2006,08,22,01,41,16.10
2006,08,22,01,42,16.10
2006,08,22,01,43,16.10
2006,08,22,01,44,16.10
2006,08,22,01,45,16.10
2006,08,22,01,46,16.00
2006,08,22,01,47,16.00
2006,08,22,01,48,16.00
2006,08,22,01,49,15.90
2006,08,22,01,50,15.90
2006,08,22,01,51,15.90
2006,08,22,01,52,15.80
2006,08,22,01,53,15.80
2006,08,22,01,54,15.80
2006,08,22,01,55,15.80
2006,08,22,01,56,15.70
2006,08,22,01,57,15.70
2006,08,22,01,58,15.70
2006,08,22,01,59,15.70
2006,08,22,02,00,15.70
2006,08,22,02,01,15.70
2006,08,22,02,02,15.60
2006,08,22,02,03,15.60
2006,08,22,02,04,15.60
2006,08,22,02,05,15.60
2006,08,22,02,06,15.60
2006,08,22,02,07,15.60
2006,08,22,02,08,15.50
2006,08,22,02,09,15.50
2006,08,22,02,10,15.50
2006,08,22,02,11,15.40
2006,08,22,02,12,15.40
2006,08,22,02,13,15.40
2006,08,22,02,14,15.40
2006,08,22,02,15,15.50
2006,08,22,02,16,15.50
2006,08,22,02,17,15.60
2006,08,22,02,18,15.70
2006,08,22,02,19,15.70
2006,08,22,02,20,15.80
2006,08,22,02,21,15.80
2006,08,22,02,22,15.90
2006,08,22,02,23,16.00
2006,08,22,02,24,16.00
2006,08,22,02,25,16.10
2006,08,22,02,26,16.10
2006,08,22,02,27,16.10
2006,08,22,02,28,16.10
2006,08,22,02,29,16.10
2006,08,22,02,30,16.10
2006,08,22,02,31,16.20
2006,08,22,02,32,16.20
2006,08,22,02,33,16.20
2006,08,22,02,34,16.20
2006,08,22,02,35,16.20
2006,08,22,02,36,16.20
2006,08,22,02,37,16.30
2006,08,22,02,38,16.30
2006,08,22,02,39,16.30
2006,08,22,02,40,16.30
2006,08,22,02,41,16.30
2006,08,22,02,42,16.30
2006,08,22,02,43,16.30
2006,08,22,02,44,16.20
2006,08,22,02,45,16.20
2006,08,22,02,46,16.20
2006,08,22,02,47,16.20
2006,08,22,02,48,16.20
2006,08,22,02,49,16.10
2006,08,22,02,50,16.10
2006,08,22,02,51,16.10
2006,08,22,02,52,16.10
2006,08,22,02,53,16.10
2006,08,22,02,54,16.10
2006,08,22,02,55,16.10
2006,08,22,02,56,16.00
2006,08,22,02,57,16.00
2006,08,22,02,58,16.00
2006,08,22,02,59,16.00
2006,08,22,03,00,16.00
2006,08,22,03,01,16.00
2006,08,22,03,02,16.00
2006,08,22,03,03,16.10
2006,08,22,03,04,16.10
2006,08,22,03,05,16.10
2006,08,22,03,06,16.10
2006,08,22,03,07,16.10
2006,08,22,03,08,16.10
2006,08,22,03,09,16.10
2006,08,22,03,10,16.10
2006,08,22,03,11,16.00
2006,08,22,03,12,16.00
2006,08,22,03,13,16.00
2006,08,22,03,14,15.90
2006,08,22,03,15,15.90
2006,08,22,03,16,15.80
2006,08,22,03,17,15.80
2006,08,22,03,18,15.80
2006,08,22,03,19,15.70
2006,08,22,03,20,15.70
2006,08,22,03,21,15.70
2006,08,22,03,22,15.60
2006,08,22,03,23,15.60
2006,08,22,03,24,15.60
2006,08,22,03,25,15.60
2006,08,22,03,26,15.50
2006,08,22,03,27,15.50
2006,08,22,03,28,15.50
2006,08,22,03,29,15.40
2006,08,22,03,30,15.40
2006,08,22,03,31,15.30
2006,08,22,03,32,15.30
2006,08,22,03,33,15.30
2006,08,22,03,34,15.30
2006,08,22,03,35,15.30
2006,08,22,03,36,15.20
2006,08,22,03,37,15.20
2006,08,22,03,38,15.20
2006,08,22,03,39,15.20
2006,08,22,03,40,15.10
2006,08,22,03,41,15.10
2006,08,22,03,42,15.10
2006,08,22,03,43,15.10
2006,08,22,03,44,15.10
2006,08,22,03,45,15.00
2006,08,22,03,46,15.00
2006,08,22,03,47,15.00
2006,08,22,03,48,15.00
2006,08,22,03,49,15.00
2006,08,22,03,50,15.00
2006,08,22,03,51,15.00
2006,08,22,03,52,14.90
2006,08,22,03,53,14.90
2006,08,22,03,54,14.90
2006,08,22,03,55,14.90
2006,08,22,03,56,14.80
2006,08,22,03,57,14.80
2006,08,22,03,58,14.80
2006,08,22,03,59,14.70
2006,08,22,04,00,14.70
2006,08,22,04,01,14.70
2006,08,22,04,02,14.60
2006,08,22,04,03,14.60
2006,08,22,04,04,14.60
2006,08,22,04,05,14.60
2006,08,22,04,06,14.50
2006,08,22,04,07,14.50
2006,08,22,04,08,14.40
2006,08,22,04,09,14.40
2006,08,22,04,10,14.30
2006,08,22,04,11,14.20
2006,08,22,04,12,14.20
2006,08,22,04,13,14.10
2006,08,22,04,14,14.10
2006,08,22,04,15,14.10
2006,08,22,04,16,14.10
2006,08,22,04,17,14.10
2006,08,22,04,18,14.00
2006,08,22,04,19,14.10
2006,08,22,04,20,14.10
2006,08,22,04,21,14.10
2006,08,22,04,22,14.10
2006,08,22,04,23,14.10
2006,08,22,04,24,14.00
2006,08,22,04,25,14.00
2006,08,22,04,26,14.00
2006,08,22,04,27,14.00
2006,08,22,04,28,14.00
2006,08,22,04,29,14.00
2006,08,22,04,30,14.00
2006,08,22,04,31,14.00
2006,08,22,04,32,13.90
2006,08,22,04,33,13.90
2006,08,22,04,34,13.90
2006,08,22,04,35,13.90
2006,08,22,04,36,13.90
2006,08,22,04,37,13.90
2006,08,22,04,38,13.80
2006,08,22,04,39,13.80
2006,08,22,04,40,13.80
2006,08,22,04,41,13.70
2006,08,22,04,42,13.70
2006,08,22,04,43,13.70
2006,08,22,04,44,13.60
2006,08,22,04,45,13.60
2006,08,22,04,46,13.60
2006,08,22,04,47,13.60
2006,08,22,04,48,13.60
2006,08,22,04,49,13.60
2006,08,22,04,50,13.60
2006,08,22,04,51,13.60
2006,08,22,04,52,13.60
2006,08,22,04,53,13.60
2006,08,22,04,54,13.60
2006,08,22,04,55,13.60
2006,08,22,04,56,13.60
2006,08,22,04,57,13.60
2006,08,22,04,58,13.60
2006,08,22,04,59,13.60
2006,08,22,05,00,13.60
2006,08,22,05,01,13.60
2006,08,22,05,02,13.70
2006,08,22,05,03,13.70
2006,08,22,05,04,13.70
2006,08,22,05,05,13.70
2006,08,22,05,06,13.80
2006,08,22,05,07,13.80
2006,08,22,05,08,13.90
2006,08,22,05,09,13.90
2006,08,22,05,10,14.00
2006,08,22,05,11,14.10
2006,08,22,05,12,14.10
2006,08,22,05,13,14.10
2006,08,22,05,14,14.10
2006,08,22,05,15,14.20
2006,08,22,05,16,14.20
2006,08,22,05,17,14.20
2006,08,22,05,18,14.10
2006,08,22,05,19,14.10
2006,08,22,05,20,14.10
2006,08,22,05,21,14.10
2006,08,22,05,22,14.10
2006,08,22,05,23,14.00
2006,08,22,05,24,14.00
2006,08,22,05,25,14.00
2006,08,22,05,26,13.90
2006,08,22,05,27,13.90
2006,08,22,05,28,13.90
2006,08,22,05,29,13.90
2006,08,22,05,30,13.90
2006,08,22,05,31,13.80
2006,08,22,05,32,13.80
2006,08,22,05,33,13.80
2006,08,22,05,34,13.70
2006,08,22,05,35,13.70
2006,08,22,05,36,13.70
2006,08,22,05,37,13.60
2006,08,22,05,38,13.60
2006,08,22,05,39,13.60
2006,08,22,05,40,13.50
2006,08,22,05,41,13.50
2006,08,22,05,42,13.40
2006,08,22,05,43,13.40
2006,08,22,05,44,13.40
2006,08,22,05,45,13.30
2006,08,22,05,46,13.30
2006,08,22,05,47,13.30
2006,08,22,05,48,13.30
2006,08,22,05,49,13.30
2006,08,22,05,50,13.30
2006,08,22,05,51,13.30
2006,08,22,05,52,13.30
2006,08,22,05,53,13.30
2006,08,22,05,54,13.30
2006,08,22,05,55,13.30
2006,08,22,05,56,13.30
2006,08,22,05,57,13.30
2006,08,22,05,58,13.30
2006,08,22,05,59,13.30
2006,08,22,06,00,13.30
2006,08,22,06,01,13.30
2006,08,22,06,02,13.30
2006,08,22,06,03,13.30
2006,08,22,06,04,13.30
2006,08,22,06,05,13.30
2006,08,22,06,06,13.30
2006,08,22,06,07,13.30
2006,08,22,06,08,13.30
2006,08,22,06,09,13.30
2006,08,22,06,10,13.30
2006,08,22,06,11,13.30
2006,08,22,06,12,13.30
2006,08,22,06,13,13.30
2006,08,22,06,14,13.30
2006,08,22,06,15,13.30
2006,08,22,06,16,13.30
2006,08,22,06,17,13.30
2006,08,22,06,18,13.30
2006,08,22,06,19,13.30
2006,08,22,06,20,13.30
2006,08,22,06,21,13.30
2006,08,22,06,22,13.30
2006,08,22,06,23,13.30
2006,08,22,06,24,13.30
2006,08,22,06,25,13.30
2006,08,22,06,26,13.30
2006,08,22,06,27,13.30
2006,08,22,06,28,13.30
2006,08,22,06,29,13.30
2006,08,22,06,30,13.30
2006,08,22,06,31,13.30
2006,08,22,06,32,13.20
2006,08,22,06,33,13.20
2006,08,22,06,34,13.20
2006,08,22,06,35,13.20
2006,08,22,06,36,13.20
2006,08,22,06,37,13.20
2006,08,22,06,38,13.10
2006,08,22,06,39,13.10
2006,08,22,06,40,13.10
2006,08,22,06,41,13.10
2006,08,22,06,42,13.00
2006,08,22,06,43,13.00
2006,08,22,06,44,13.00
2006,08,22,06,45,13.00
2006,08,22,06,46,12.90
2006,08,22,06,47,12.90
2006,08,22,06,48,12.90
2006,08,22,06,49,12.90
2006,08,22,06,50,12.90
2006,08,22,06,51,12.90
2006,08,22,06,52,12.90
2006,08,22,06,53,12.80
2006,08,22,06,54,12.80
2006,08,22,06,55,12.80
2006,08,22,06,56,12.80
2006,08,22,06,57,12.80
2006,08,22,06,58,12.80
2006,08,22,06,59,12.80
2006,08,22,07,00,12.80
2006,08,22,07,01,12.80
2006,08,22,07,02,12.80
2006,08,22,07,03,12.80
2006,08,22,07,04,12.80
2006,08,22,07,05,12.80
2006,08,22,07,06,12.80
2006,08,22,07,07,12.80
2006,08,22,07,08,12.80
2006,08,22,07,09,12.80
2006,08,22,07,10,12.80
2006,08,22,07,11,12.70
2006,08,22,07,12,12.70
2006,08,22,07,13,12.70
2006,08,22,07,14,12.70
2006,08,22,07,15,12.70
2006,08,22,07,16,12.70
2006,08,22,07,17,12.70
2006,08,22,07,18,12.70
2006,08,22,07,19,12.70
2006,08,22,07,20,12.70
2006,08,22,07,21,12.80
2006,08,22,07,22,12.80
2006,08,22,07,23,12.80
2006,08,22,07,24,12.80
2006,08,22,07,25,12.80
2006,08,22,07,26,12.80
2006,08,22,07,27,12.80
2006,08,22,07,28,12.80
2006,08,22,07,29,12.80
2006,08,22,07,30,12.80
2006,08,22,07,31,12.80
2006,08,22,07,32,12.80
2006,08,22,07,33,12.80
2006,08,22,07,34,12.90
2006,08,22,07,35,12.90
2006,08,22,07,36,13.00
2006,08,22,07,37,13.00
2006,08,22,07,38,13.10
2006,08,22,07,39,13.20
2006,08,22,07,40,13.30
2006,08,22,07,41,13.40
2006,08,22,07,42,13.50
2006,08,22,07,43,13.70
2006,08,22,07,44,13.80
2006,08,22,07,45,13.90
2006,08,22,07,46,14.00
2006,08,22,07,47,14.10
2006,08,22,07,48,14.20
2006,08,22,07,49,14.20
2006,08,22,07,50,14.20
2006,08,22,07,51,14.20
2006,08,22,07,52,14.30
2006,08,22,07,53,14.30
2006,08,22,07,54,14.40
2006,08,22,07,55,14.40
2006,08,22,07,56,14.50
2006,08,22,07,57,14.50
2006,08,22,07,58,14.50
2006,08,22,07,59,14.50
2006,08,22,08,00,14.60
2006,08,22,08,01,14.60
2006,08,22,08,02,14.60
2006,08,22,08,03,14.60
2006,08,22,08,04,14.60
2006,08,22,08,05,14.60
2006,08,22,08,06,14.60
2006,08,22,08,07,14.60
2006,08,22,08,08,14.50
2006,08,22,08,09,14.50
2006,08,22,08,10,14.40
2006,08,22,08,11,14.30
2006,08,22,08,12,14.30
2006,08,22,08,13,14.30
2006,08,22,08,14,14.30
2006,08,22,08,15,14.20
2006,08,22,08,16,14.20
2006,08,22,08,17,14.20
2006,08,22,08,18,14.20
2006,08,22,08,19,14.20
2006,08,22,08,20,14.10
2006,08,22,08,21,14.20
2006,08,22,08,22,14.20
2006,08,22,08,23,14.20
2006,08,22,08,24,14.20
2006,08,22,08,25,14.30
2006,08,22,08,26,14.30
2006,08,22,08,27,14.30
2006,08,22,08,28,14.30
2006,08,22,08,29,14.30
2006,08,22,08,30,14.30
2006,08,22,08,31,14.30
2006,08,22,08,32,14.40
2006,08,22,08,33,14.40
2006,08,22,08,34,14.50
2006,08,22,08,35,14.60
2006,08,22,08,36,14.70
2006,08,22,08,37,14.80
2006,08,22,08,38,14.90
2006,08,22,08,39,15.00
2006,08,22,08,40,15.00
2006,08,22,08,41,15.00
2006,08,22,08,42,15.00
2006,08,22,08,43,15.00
2006,08,22,08,44,15.00
2006,08,22,08,45,15.00
2006,08,22,08,46,15.00
2006,08,22,08,47,15.00
2006,08,22,08,48,15.00
2006,08,22,08,49,15.10
2006,08,22,08,50,15.20
2006,08,22,08,51,15.20
2006,08,22,08,52,15.30
2006,08,22,08,53,15.30
2006,08,22,08,54,15.40
2006,08,22,08,55,15.40
2006,08,22,08,56,15.40
2006,08,22,08,57,15.40
2006,08,22,08,58,15.40
2006,08,22,08,59,15.40
2006,08,22,09,00,15.40
2006,08,22,09,01,15.40
2006,08,22,09,02,15.50
2006,08,22,09,03,15.50
2006,08,22,09,04,15.60
2006,08,22,09,05,15.60
2006,08,22,09,06,15.50
2006,08,22,09,07,15.50
2006,08,22,09,08,15.50
2006,08,22,09,09,15.50
2006,08,22,09,10,15.60
2006,08,22,09,11,15.60
2006,08,22,09,12,15.50
2006,08,22,09,13,15.50
2006,08,22,09,14,15.50
2006,08,22,09,15,15.50
2006,08,22,09,16,15.50
2006,08,22,09,17,15.40
2006,08,22,09,18,15.30
2006,08,22,09,19,15.20
2006,08,22,09,20,15.20
2006,08,22,09,21,15.30
2006,08,22,09,22,15.30
2006,08,22,09,23,15.30
2006,08,22,09,24,15.20
2006,08,22,09,25,15.20
2006,08,22,09,26,15.20
2006,08,22,09,27,15.30
2006,08,22,09,28,15.30
2006,08,22,09,29,15.30
2006,08,22,09,30,15.40
2006,08,22,09,31,15.30
2006,08,22,09,32,15.20
2006,08,22,09,33,15.10
2006,08,22,09,34,15.10
2006,08,22,09,35,15.10
2006,08,22,09,36,15.20
2006,08,22,09,37,15.30
2006,08,22,09,38,15.30
2006,08,22,09,39,15.30
2006,08,22,09,40,15.30
2006,08,22,09,41,15.30
2006,08,22,09,42,15.30
2006,08,22,09,43,15.30
2006,08,22,09,44,15.30
2006,08,22,09,45,15.30
2006,08,22,09,46,15.30
2006,08,22,09,47,15.20
2006,08,22,09,48,15.00
2006,08,22,09,49,15.00
2006,08,22,09,50,15.00
2006,08,22,09,51,15.00
2006,08,22,09,52,15.00
2006,08,22,09,53,15.00
2006,08,22,09,54,15.00
2006,08,22,09,55,15.00
2006,08,22,09,56,15.00
2006,08,22,09,57,15.10
2006,08,22,09,58,15.20
2006,08,22,09,59,15.10
2006,08,22,10,00,15.10
2006,08,22,10,01,15.10
2006,08,22,10,02,15.00
2006,08,22,10,03,15.00
2006,08,22,10,04,15.00
2006,08,22,10,05,15.00
2006,08,22,10,06,15.00
2006,08,22,10,07,15.00
2006,08,22,10,08,15.00
2006,08,22,10,09,15.00
2006,08,22,10,10,15.00
2006,08,22,10,11,15.00
2006,08,22,10,12,15.00
2006,08,22,10,13,15.00
2006,08,22,10,14,15.00
2006,08,22,10,15,15.00
2006,08,22,10,16,14.80
2006,08,22,10,17,14.60
2006,08,22,10,18,14.40
2006,08,22,10,19,14.30
2006,08,22,10,20,14.20
2006,08,22,10,21,14.10
2006,08,22,10,22,14.00
2006,08,22,10,23,14.00
2006,08,22,10,24,14.10
2006,08,22,10,25,14.20
2006,08,22,10,26,14.20
2006,08,22,10,27,14.20
2006,08,22,10,28,14.10
2006,08,22,10,29,14.10
2006,08,22,10,30,14.00
2006,08,22,10,31,14.00
2006,08,22,10,32,13.90
2006,08,22,10,33,13.90
2006,08,22,10,34,13.90
2006,08,22,10,35,13.90
2006,08,22,10,36,13.80
2006,08,22,10,37,13.80
2006,08,22,10,38,13.80
2006,08,22,10,39,13.80
2006,08,22,10,40,13.80
2006,08,22,10,41,13.80
2006,08,22,10,42,13.70
2006,08,22,10,43,13.70
2006,08,22,10,44,13.70
2006,08,22,10,45,13.80
2006,08,22,10,46,13.80
2006,08,22,10,47,13.80
2006,08,22,10,48,13.80
2006,08,22,10,49,13.90
2006,08,22,10,50,13.90
2006,08,22,10,51,13.80
2006,08,22,10,52,13.80
2006,08,22,10,53,13.80
2006,08,22,10,54,13.70
2006,08,22,10,55,13.70
2006,08,22,10,56,13.60
2006,08,22,10,57,13.50
2006,08,22,10,58,13.40
2006,08,22,10,59,13.40
2006,08,22,11,00,13.30
2006,08,22,11,01,13.30
2006,08,22,11,02,13.30
2006,08,22,11,03,13.20
2006,08,22,11,04,13.10
2006,08,22,11,05,13.00
2006,08,22,11,06,12.90
2006,08,22,11,07,12.90
2006,08,22,11,08,12.90
2006,08,22,11,09,12.80
2006,08,22,11,10,12.80
2006,08,22,11,11,12.80
2006,08,22,11,12,12.90
2006,08,22,11,13,13.00
2006,08,22,11,14,13.10
2006,08,22,11,15,13.20
2006,08,22,11,16,13.30
2006,08,22,11,17,13.40
2006,08,22,11,18,13.50
2006,08,22,11,19,13.50
2006,08,22,11,20,13.40
2006,08,22,11,21,13.50
2006,08,22,11,22,13.50
2006,08,22,11,23,13.60
2006,08,22,11,24,13.70
2006,08,22,11,25,13.80
2006,08,22,11,26,13.80
2006,08,22,11,27,13.80
2006,08,22,11,28,13.90
2006,08,22,11,29,13.80
2006,08,22,11,30,13.90
2006,08,22,11,31,13.90
2006,08,22,11,32,14.00
2006,08,22,11,33,14.00
2006,08,22,11,34,14.00
2006,08,22,11,35,14.10
2006,08,22,11,36,14.20
2006,08,22,11,37,14.50
2006,08,22,11,38,14.60
2006,08,22,11,39,14.60
2006,08,22,11,40,14.70
2006,08,22,11,41,14.70
2006,08,22,11,42,14.70
2006,08,22,11,43,14.90
2006,08,22,11,44,14.90
2006,08,22,11,45,14.80
2006,08,22,11,46,14.80
2006,08,22,11,47,14.80
2006,08,22,11,48,15.00
2006,08,22,11,49,15.00
2006,08,22,11,50,15.00
2006,08,22,11,51,15.00
2006,08,22,11,52,15.00
2006,08,22,11,53,15.00
2006,08,22,11,54,15.00
2006,08,22,11,55,15.00
2006,08,22,11,56,15.20
2006,08,22,11,57,15.20
2006,08,22,11,58,15.10
2006,08,22,11,59,15.00
2006,08,22,12,00,15.00
2006,08,22,12,01,15.20
2006,08,22,12,02,15.20
2006,08,22,12,03,15.20
2006,08,22,12,04,15.20
2006,08,22,12,05,15.20
2006,08,22,12,06,15.30
2006,08,22,12,07,15.40
2006,08,22,12,08,15.40
2006,08,22,12,09,15.40
2006,08,22,12,10,15.10
2006,08,22,12,11,15.00
2006,08,22,12,12,14.80
2006,08,22,12,13,14.80
2006,08,22,12,14,14.90
2006,08,22,12,15,15.00
2006,08,22,12,16,15.00
2006,08,22,12,17,14.90
2006,08,22,12,18,14.90
2006,08,22,12,19,14.80
2006,08,22,12,20,14.80
2006,08,22,12,21,14.90
2006,08,22,12,22,15.00
2006,08,22,12,23,15.00
2006,08,22,12,24,15.00
2006,08,22,12,25,15.00
2006,08,22,12,26,14.80
2006,08,22,12,27,14.70
2006,08,22,12,28,14.80
2006,08,22,12,29,14.90
2006,08,22,12,30,15.00
2006,08,22,12,31,15.00
2006,08,22,12,32,15.00
2006,08,22,12,33,15.00
2006,08,22,12,34,15.20
2006,08,22,12,35,15.20
2006,08,22,12,36,15.20
2006,08,22,12,37,15.30
2006,08,22,12,38,15.30
2006,08,22,12,39,15.20
2006,08,22,12,40,15.10
2006,08,22,12,41,15.20
2006,08,22,12,42,15.30
2006,08,22,12,43,15.20
2006,08,22,12,44,15.30
2006,08,22,12,45,15.30
2006,08,22,12,46,15.40
2006,08,22,12,47,15.60
2006,08,22,12,48,15.70
2006,08,22,12,49,15.90
2006,08,22,12,50,15.90
2006,08,22,12,51,15.90
2006,08,22,12,52,15.80
2006,08,22,12,53,15.90
2006,08,22,12,54,16.00
2006,08,22,12,55,16.10
2006,08,22,12,56,16.10
2006,08,22,12,57,16.00
2006,08,22,12,58,16.00
2006,08,22,12,59,15.90
2006,08,22,13,00,16.00
2006,08,22,13,01,16.10
2006,08,22,13,02,16.10
2006,08,22,13,03,16.10
2006,08,22,13,04,16.10
2006,08,22,13,05,16.00
2006,08,22,13,06,15.80
2006,08,22,13,07,15.70
2006,08,22,13,08,15.60
2006,08,22,13,09,15.60
2006,08,22,13,10,15.60
2006,08,22,13,11,15.70
2006,08,22,13,12,15.80
2006,08,22,13,13,15.90
2006,08,22,13,14,15.80
2006,08,22,13,15,15.80
2006,08,22,13,16,15.70
2006,08,22,13,17,15.70
2006,08,22,13,18,15.70
2006,08,22,13,19,15.70
2006,08,22,13,20,15.70
2006,08,22,13,21,15.70
2006,08,22,13,22,15.80
2006,08,22,13,23,15.80
2006,08,22,13,24,15.90
2006,08,22,13,25,15.90
2006,08,22,13,26,15.90
2006,08,22,13,27,15.90
2006,08,22,13,28,16.00
2006,08,22,13,29,16.00
2006,08,22,13,30,16.10
2006,08,22,13,31,16.10
2006,08,22,13,32,15.80
2006,08,22,13,33,15.60
2006,08,22,13,34,15.60
2006,08,22,13,35,15.60
2006,08,22,13,36,15.70
2006,08,22,13,37,15.80
2006,08,22,13,38,15.90
2006,08,22,13,39,15.90
2006,08,22,13,40,15.90
2006,08,22,13,41,15.90
2006,08,22,13,42,15.80
2006,08,22,13,43,15.80
2006,08,22,13,44,15.80
2006,08,22,13,45,15.60
2006,08,22,13,46,15.50
2006,08,22,13,47,15.50
2006,08,22,13,48,15.50
2006,08,22,13,49,15.40
2006,08,22,13,50,15.50
2006,08,22,13,51,15.60
2006,08,22,13,52,15.70
2006,08,22,13,53,15.60
2006,08,22,13,54,15.50
2006,08,22,13,55,15.40
2006,08,22,13,56,15.40
2006,08,22,13,57,15.40
2006,08,22,13,58,15.40
2006,08,22,13,59,15.20
2006,08,22,14,00,15.00
2006,08,22,14,01,15.00
2006,08,22,14,02,15.00
2006,08,22,14,03,15.00
2006,08,22,14,04,15.10
2006,08,22,14,05,15.20
2006,08,22,14,06,15.30
2006,08,22,14,07,15.30
2006,08,22,14,08,15.40
2006,08,22,14,09,15.40
2006,08,22,14,10,15.50
2006,08,22,14,11,15.60
2006,08,22,14,12,15.70
2006,08,22,14,13,15.70
2006,08,22,14,14,15.70
2006,08,22,14,15,15.60
2006,08,22,14,16,15.40
2006,08,22,14,17,15.40
2006,08,22,14,18,15.30
2006,08,22,14,19,15.30
2006,08,22,14,20,15.30
2006,08,22,14,21,15.30
2006,08,22,14,22,15.30
2006,08,22,14,23,15.30
2006,08,22,14,24,15.30
2006,08,22,14,25,15.40
2006,08,22,14,26,15.50
2006,08,22,14,27,15.60
2006,08,22,14,28,15.70
2006,08,22,14,29,15.70
2006,08,22,14,30,15.60
2006,08,22,14,31,15.50
2006,08,22,14,32,15.40
2006,08,22,14,33,15.40
2006,08,22,14,34,15.40
2006,08,22,14,35,15.40
2006,08,22,14,36,15.30
2006,08,22,14,37,15.30
2006,08,22,14,38,15.40
2006,08,22,14,39,15.50
2006,08,22,14,40,15.60
2006,08,22,14,41,15.70
2006,08,22,14,42,15.80
2006,08,22,14,43,15.80
2006,08,22,14,44,15.70
2006,08,22,14,45,15.70
2006,08,22,14,46,15.70
2006,08,22,14,47,15.70
2006,08,22,14,48,15.70
2006,08,22,14,49,15.70
2006,08,22,14,50,15.70
2006,08,22,14,51,15.70
2006,08,22,14,52,15.70
2006,08,22,14,53,15.70
2006,08,22,14,54,15.70
2006,08,22,14,55,15.80
2006,08,22,14,56,15.80
2006,08,22,14,57,15.80
2006,08,22,14,58,15.80
2006,08,22,14,59,15.90
2006,08,22,15,00,16.00
2006,08,22,15,01,15.90
2006,08,22,15,02,16.00
2006,08,22,15,03,16.00
2006,08,22,15,04,16.10
2006,08,22,15,05,16.00
2006,08,22,15,06,16.00
2006,08,22,15,07,16.10
2006,08,22,15,08,16.10
2006,08,22,15,09,16.00
2006,08,22,15,10,16.10
2006,08,22,15,11,16.10
2006,08,22,15,12,16.10
2006,08,22,15,13,16.10
2006,08,22,15,14,16.10
2006,08,22,15,15,16.00
2006,08,22,15,16,16.00
2006,08,22,15,17,15.90
2006,08,22,15,18,15.90
2006,08,22,15,19,15.90
2006,08,22,15,20,15.90
2006,08,22,15,21,15.90
2006,08,22,15,22,15.90
2006,08,22,15,23,15.80
2006,08,22,15,24,15.80
2006,08,22,15,25,15.70
2006,08,22,15,26,15.70
2006,08,22,15,27,15.70
2006,08,22,15,28,15.70
2006,08,22,15,29,15.60
2006,08,22,15,30,15.60
2006,08,22,15,31,15.60
2006,08,22,15,32,15.60
2006,08,22,15,33,15.60
2006,08,22,15,34,15.60
2006,08,22,15,35,15.60
2006,08,22,15,36,15.60
2006,08,22,15,37,15.70
2006,08,22,15,38,15.70
2006,08,22,15,39,15.70
2006,08,22,15,40,15.70
2006,08,22,15,41,15.70
2006,08,22,15,42,15.80
2006,08,22,15,43,16.00
2006,08,22,15,44,16.10
2006,08,22,15,45,16.20
2006,08,22,15,46,16.40
2006,08,22,15,47,16.50
2006,08,22,15,48,16.60
2006,08,22,15,49,16.60
2006,08,22,15,50,16.60
2006,08,22,15,51,16.50
2006,08,22,15,52,16.50
2006,08,22,15,53,16.50
2006,08,22,15,54,16.60
2006,08,22,15,55,16.70
2006,08,22,15,56,16.70
2006,08,22,15,57,16.70
2006,08,22,15,58,16.70
2006,08,22,15,59,16.70
2006,08,22,16,00,16.70
2006,08,22,16,01,16.70
2006,08,22,16,02,16.80
2006,08,22,16,03,16.90
2006,08,22,16,04,17.00
2006,08,22,16,05,17.00
2006,08,22,16,06,17.00
2006,08,22,16,07,16.90
2006,08,22,16,08,16.80
2006,08,22,16,09,16.70
2006,08,22,16,10,16.60
2006,08,22,16,11,16.60
2006,08,22,16,12,16.70
2006,08,22,16,13,16.80
2006,08,22,16,14,16.70
2006,08,22,16,15,16.70
2006,08,22,16,16,16.70
2006,08,22,16,17,16.60
2006,08,22,16,18,16.40
2006,08,22,16,19,16.20
2006,08,22,16,20,16.10
2006,08,22,16,21,16.00
2006,08,22,16,22,15.90
2006,08,22,16,23,15.80
2006,08,22,16,24,15.80
2006,08,22,16,25,15.90
2006,08,22,16,26,15.90
2006,08,22,16,27,16.00
2006,08,22,16,28,16.00
2006,08,22,16,29,16.00
2006,08,22,16,30,16.00
2006,08,22,16,31,16.10
2006,08,22,16,32,16.20
2006,08,22,16,33,16.30
2006,08,22,16,34,16.30
2006,08,22,16,35,16.30
2006,08,22,16,36,16.40
2006,08,22,16,37,16.40
2006,08,22,16,38,16.50
2006,08,22,16,39,16.60
2006,08,22,16,40,16.70
2006,08,22,16,41,16.80
2006,08,22,16,42,16.90
2006,08,22,16,43,17.00
2006,08,22,16,44,17.10
2006,08,22,16,45,17.30
2006,08,22,16,46,17.30
2006,08,22,16,47,17.40
2006,08,22,16,48,17.50
2006,08,22,16,49,17.50
2006,08,22,16,50,17.50
2006,08,22,16,51,17.70
2006,08,22,16,52,17.70
2006,08,22,16,53,17.80
2006,08,22,16,54,17.80
2006,08,22,16,55,17.90
2006,08,22,16,56,18.10
2006,08,22,16,57,18.20
2006,08,22,16,58,18.40
2006,08,22,16,59,18.50
2006,08,22,17,00,18.70
2006,08,22,17,01,18.90
2006,08,22,17,02,19.10
2006,08,22,17,03,19.20
2006,08,22,17,04,19.30
2006,08,22,17,05,19.30
2006,08,22,17,06,19.40
2006,08,22,17,07,19.40
2006,08,22,17,08,19.40
2006,08,22,17,09,19.40
2006,08,22,17,10,19.40
2006,08,22,17,11,19.40
2006,08,22,17,12,19.40
2006,08,22,17,13,19.30
2006,08,22,17,14,19.20
2006,08,22,17,15,19.10
2006,08,22,17,16,19.00
2006,08,22,17,17,18.90
2006,08,22,17,18,18.80
2006,08,22,17,19,18.80